STARLINK-1182 (45077 NORAD) Tracking and Keplerian Element Data

This shows tracking and keplerian element data for the satellite.

Feedback or suggestion? Click here.




ElementValue
Catalog45077
NameSTARLINK-1182
Epoch Orbit1047
Epoch Day93.91667824
Epoch Year2020
RAAN277.297
Inclination52.9999
Eccentricity0.0001562
Argument of Perigee177.5596
Mean Anonmoly342.3072
Mean Motion15.50281288
Decay Rate0.02275871
L11 45077U 20006AK 20093.91667824 .02275871 00000-0 35397-1 0 9998
L22 45077 52.9999 277.2970 0001562 177.5596 342.3072 15.50281288 10479

Live tracking and technical data element details for STARLINK-1182 (NORAD 45077). STARLINK-1182 can be tracked NOW for your location showing map with azimuth and elevation plus other details from your city location.

Track the satellite on the map from your city or location and see movement details for azimuth, elevation, latitude, longitude, range, height, and movement on the map or in text.







IsCatalogInMostPopularTable: catalog: 45077, numindb: 10
Update: records affected: 1



GetName: 45077 STARLINK-1182

Hit Count: updated at: Sun, 05 Apr 2020 19:48:18 GMT